�������l�o���
Date,Time,MP-1(��Sv/h),MP-2(��Sv/h),MP-3(��Sv/h),MP-4(��Sv/h),MP-5(��Sv/h),MP-6(��Sv/h),MP-7(��Sv/h),MP-8(��Sv/h),����,����(m/s),���J
2022/09/20,00:00,0.575,0.825,0.527,1.025,0.726,0.337,0.589,0.553,��,11.0,�L
2022/09/20,00:10,0.576,0.828,0.527,1.025,0.728,0.337,0.587,0.553,��,11.3,�L
2022/09/20,00:20,0.574,0.825,0.530,1.025,0.727,0.337,0.588,0.554,��,9.9,��
2022/09/20,00:30,0.576,0.822,0.529,1.025,0.727,0.336,0.588,0.555,��,11.8,�L
2022/09/20,00:40,0.576,0.825,0.528,1.025,0.726,0.337,0.588,0.553,��,12.7,�L
2022/09/20,00:50,0.576,0.825,0.527,1.025,0.727,0.335,0.588,0.553,��,10.2,�L
2022/09/20,01:00,0.576,0.825,0.527,1.024,0.728,0.336,0.589,0.554,��,8.9,�L
2022/09/20,01:10,0.576,0.826,0.527,1.026,0.727,0.337,0.588,0.554,��,8.7,��
2022/09/20,01:20,0.575,0.825,0.527,1.027,0.728,0.336,0.589,0.555,��,11.1,��
2022/09/20,01:30,0.576,0.827,0.528,1.027,0.728,0.338,0.590,0.553,��,10.2,��
2022/09/20,01:40,0.576,0.827,0.530,1.027,0.728,0.338,0.591,0.555,��,9.2,��
2022/09/20,01:50,0.576,0.827,0.529,1.026,0.728,0.338,0.591,0.554,��,11.8,��
2022/09/20,02:00,0.576,0.828,0.528,1.028,0.729,0.337,0.589,0.556,��,8.8,��
2022/09/20,02:10,0.577,0.828,0.529,1.026,0.728,0.336,0.589,0.555,��,9.3,��
2022/09/20,02:20,0.577,0.828,0.529,1.029,0.729,0.338,0.590,0.556,��,10.5,��
2022/09/20,02:30,0.576,0.828,0.528,1.026,0.729,0.337,0.590,0.554,��,10.9,��
2022/09/20,02:40,0.577,0.830,0.530,1.025,0.730,0.338,0.590,0.556,��,8.9,��
2022/09/20,02:50,0.575,0.828,0.528,1.028,0.729,0.338,0.591,0.554,��,11.6,�L
2022/09/20,03:00,0.578,0.828,0.529,1.029,0.730,0.339,0.590,0.555,��,11.7,��
2022/09/20,03:10,0.577,0.827,0.528,1.028,0.729,0.338,0.591,0.555,��,10.9,��
2022/09/20,03:20,0.577,0.830,0.529,1.027,0.729,0.339,0.591,0.554,��,10.6,�L
2022/09/20,03:30,0.578,0.828,0.529,1.029,0.731,0.337,0.591,0.555,��,12.5,�L
2022/09/20,03:40,0.579,0.828,0.529,1.028,0.730,0.339,0.591,0.556,��,13.0,�L
2022/09/20,03:50,0.578,0.829,0.530,1.029,0.729,0.338,0.592,0.554,��,10.4,�L
2022/09/20,04:00,0.578,0.828,0.530,1.029,0.730,0.337,0.592,0.557,��,9.5,�L
2022/09/20,04:10,0.578,0.830,0.529,1.028,0.731,0.338,0.593,0.555,��,11.3,�L
2022/09/20,04:20,0.578,0.830,0.529,1.029,0.731,0.339,0.592,0.555,��,12.7,�L
2022/09/20,04:30,0.578,0.829,0.531,1.030,0.731,0.338,0.591,0.555,��,10.3,�L
2022/09/20,04:40,0.579,0.830,0.528,1.030,0.730,0.338,0.591,0.555,��,9.9,�L
2022/09/20,04:50,0.578,0.829,0.531,1.029,0.731,0.339,0.591,0.556,��,12.7,�L
2022/09/20,05:00,0.579,0.828,0.531,1.028,0.730,0.339,0.591,0.556,��,10.7,�L
2022/09/20,05:10,0.580,0.829,0.532,1.029,0.730,0.339,0.592,0.557,��,12.5,�L
2022/09/20,05:20,0.579,0.834,0.530,1.029,0.731,0.339,0.593,0.557,��,11.6,�L
2022/09/20,05:30,0.580,0.830,0.531,1.028,0.730,0.338,0.592,0.555,��,11.3,�L
2022/09/20,05:40,0.579,0.830,0.530,1.028,0.732,0.337,0.591,0.557,��,10.9,�L
2022/09/20,05:50,0.579,0.830,0.530,1.029,0.732,0.336,0.591,0.556,��,12.4,�L
2022/09/20,06:00,0.582,0.832,0.529,1.029,0.729,0.337,0.591,0.556,��,12.7,�L
2022/09/20,06:10,0.581,0.831,0.531,1.030,0.730,0.338,0.592,0.558,��,12.4,��
2022/09/20,06:20,0.581,0.832,0.531,1.029,0.732,0.338,0.591,0.557,��,9.6,��
2022/09/20,06:30,0.579,0.832,0.531,1.029,0.731,0.338,0.592,0.558,��,12.5,��
2022/09/20,06:40,0.579,0.831,0.530,1.028,0.731,0.337,0.592,0.557,��,10.4,��
2022/09/20,06:50,0.580,0.832,0.532,1.029,0.731,0.338,0.592,0.558,��,10.4,�L
2022/09/20,07:00,0.579,0.834,0.530,1.029,0.733,0.339,0.592,0.558,��,9.7,��
2022/09/20,07:10,0.577,0.832,0.531,1.030,0.733,0.339,0.591,0.559,��,10.2,��
2022/09/20,07:20,0.579,0.833,0.529,1.028,0.732,0.338,0.592,0.558,��,8.5,��
2022/09/20,07:30,0.579,0.832,0.531,1.027,0.731,0.339,0.593,0.557,��,10.4,��
2022/09/20,07:40,0.581,0.833,0.531,1.029,0.734,0.339,0.592,0.557,��,11.8,��
2022/09/20,07:50,0.582,0.834,0.530,1.030,0.733,0.339,0.591,0.558,��,8.1,��
2022/09/20,08:00,0.581,0.834,0.530,1.030,0.732,0.338,0.590,0.555,��,8.3,��
2022/09/20,08:10,0.578,0.835,0.530,1.029,0.732,0.339,0.591,0.557,��,9.4,��
2022/09/20,08:20,0.579,0.832,0.531,1.030,0.731,0.339,0.593,0.558,��,7.7,��
2022/09/20,08:30,0.580,0.836,0.532,1.031,0.732,0.338,0.591,0.558,��,9.8,��
2022/09/20,08:40,0.580,0.833,0.532,1.031,0.734,0.338,0.592,0.557,��,9.5,��
2022/09/20,08:50,0.578,0.832,0.531,1.031,0.733,0.340,0.591,0.558,��,9.2,��
2022/09/20,09:00,0.580,0.836,0.531,1.031,0.732,0.338,0.592,0.557,��,7.9,��
2022/09/20,09:10,0.577,0.835,0.531,1.031,0.736,0.340,0.589,0.555,��쐼,7.3,��
2022/09/20,09:20,0.580,0.830,0.532,1.032,0.734,0.340,0.592,0.555,��,6.2,�L
2022/09/20,09:30,0.580,0.826,0.528,1.032,0.732,0.341,0.591,0.555,�쐼,3.9,�L
2022/09/20,09:40,0.577,0.830,0.528,1.030,0.730,0.340,0.591,0.554,��,5.1,�L
2022/09/20,09:50,0.578,0.827,0.527,1.027,0.725,0.338,0.587,0.552,��,7.3,�L
2022/09/20,10:00,0.572,0.818,0.526,1.022,0.720,0.337,0.586,0.554,��,7.2,�L
2022/09/20,10:10,0.571,0.818,0.526,1.023,0.721,0.336,0.585,0.551,��,8.1,�L
2022/09/20,10:20,0.569,0.814,0.524,1.020,0.719,0.338,0.584,0.551,���k��,6.6,�L
2022/09/20,10:30,0.565,0.809,0.522,1.012,0.713,0.334,0.582,0.550,���k��,8.0,�L
2022/09/20,10:40,0.564,0.806,0.523,1.006,0.710,0.336,0.579,0.547,���k��,9.8,�L
2022/09/20,10:50,0.563,0.805,0.522,1.003,0.708,0.336,0.578,0.547,�k��,5.7,�L
2022/09/20,11:00,0.566,0.807,0.521,1.003,0.707,0.337,0.580,0.546,���k��,6.0,�L
2022/09/20,11:10,0.564,0.807,0.522,1.006,0.710,0.338,0.579,0.547,���k��,6.8,�L
2022/09/20,11:20,0.569,0.806,0.522,1.006,0.711,0.337,0.580,0.548,���k��,5.7,�L
2022/09/20,11:30,0.568,0.807,0.521,1.006,0.710,0.338,0.580,0.549,���k��,6.2,�L
2022/09/20,11:40,0.565,0.809,0.520,1.008,0.712,0.337,0.582,0.550,���k��,6.1,�L
2022/09/20,11:50,0.567,0.812,0.522,1.010,0.712,0.339,0.581,0.548,���k��,4.3,�L
2022/09/20,12:00,0.569,0.812,0.521,1.011,0.710,0.337,0.581,0.548,�k��,5.2,�L
2022/09/20,12:10,0.566,0.812,0.523,1.009,0.712,0.336,0.581,0.549,�k��,5.8,�L
2022/09/20,12:20,0.565,0.811,0.524,1.009,0.711,0.336,0.581,0.547,�k�k��,7.0,�L
2022/09/20,12:30,0.566,0.812,0.521,1.011,0.712,0.337,0.583,0.549,�k�k��,6.4,�L
2022/09/20,12:40,0.565,0.809,0.522,1.008,0.709,0.336,0.580,0.547,�k��,2.3,�L
2022/09/20,12:50,0.562,0.801,0.520,1.001,0.702,0.335,0.576,0.545,�k�k��,9.3,�L
2022/09/20,13:00,0.559,0.802,0.518,0.994,0.701,0.337,0.575,0.542,�k�k��,5.6,�L
2022/09/20,13:10,0.561,0.803,0.521,0.994,0.704,0.338,0.574,0.544,�k,4.5,�L
2022/09/20,13:20,0.566,0.806,0.524,0.995,0.703,0.339,0.576,0.545,�k�k��,4.7,�L
2022/09/20,13:30,0.564,0.807,0.522,0.996,0.704,0.338,0.575,0.544,�k,6.9,�L
2022/09/20,13:40,0.564,0.807,0.522,0.998,0.705,0.336,0.577,0.546,�k,6.2,�L
2022/09/20,13:50,0.565,0.808,0.521,0.997,0.706,0.338,0.577,0.547,�k,6.1,�L
2022/09/20,14:00,0.563,0.805,0.518,0.999,0.703,0.336,0.578,0.547,���k��,1.7,�L
2022/09/20,14:10,0.562,0.800,0.519,0.993,0.699,0.337,0.576,0.545,�k�k��,4.0,�L
2022/09/20,14:20,0.560,0.800,0.517,0.990,0.698,0.335,0.574,0.545,�k,5.9,�L
2022/09/20,14:30,0.558,0.800,0.517,0.987,0.695,0.335,0.575,0.544,�k,4.0,�L
2022/09/20,14:40,0.557,0.798,0.516,0.987,0.697,0.335,0.576,0.547,�k,8.2,�L
2022/09/20,14:50,0.561,0.799,0.520,0.988,0.698,0.336,0.576,0.544,�k,8.5,�L
2022/09/20,15:00,0.560,0.803,0.520,0.991,0.699,0.335,0.575,0.545,�k,7.5,�L
2022/09/20,15:10,0.561,0.803,0.520,0.991,0.701,0.333,0.576,0.545,�k,8.6,�L
2022/09/20,15:20,0.558,0.801,0.517,0.989,0.696,0.335,0.576,0.544,�k,8.5,�L
2022/09/20,15:30,0.558,0.800,0.516,0.986,0.696,0.335,0.575,0.543,�k,6.4,�L
2022/09/20,15:40,0.558,0.793,0.518,0.985,0.694,0.336,0.574,0.542,�k�k��,8.8,�L
2022/09/20,15:50,0.558,0.798,0.520,0.985,0.695,0.338,0.572,0.543,�k�k��,7.7,�L
2022/09/20,16:00,0.559,0.803,0.520,0.988,0.698,0.337,0.572,0.542,�k,8.4,�L
2022/09/20,16:10,0.561,0.802,0.521,0.987,0.699,0.337,0.574,0.544,�k,7.8,�L
2022/09/20,16:20,0.560,0.803,0.520,0.988,0.696,0.336,0.574,0.542,�k�k��,8.0,�L
2022/09/20,16:30,0.561,0.801,0.520,0.989,0.696,0.336,0.573,0.542,�k�k��,7.1,�L
2022/09/20,16:40,0.560,0.799,0.520,0.987,0.696,0.337,0.573,0.543,�k,6.6,�L
2022/09/20,16:50,0.560,0.801,0.519,0.987,0.698,0.336,0.574,0.543,�k,7.0,�L
2022/09/20,17:00,0.559,0.800,0.518,0.988,0.695,0.335,0.573,0.544,�k,6.1,�L
2022/09/20,17:10,0.557,0.797,0.518,0.986,0.691,0.337,0.573,0.543,�k,6.8,�L
2022/09/20,17:20,0.557,0.794,0.516,0.979,0.690,0.337,0.571,0.541,�k�k��,7.3,�L
2022/09/20,17:30,0.556,0.795,0.518,0.980,0.687,0.337,0.571,0.542,�k,7.1,�L
2022/09/20,17:40,0.559,0.795,0.518,0.980,0.688,0.338,0.571,0.540,�k,8.0,�L
2022/09/20,17:50,0.560,0.796,0.520,0.981,0.687,0.339,0.571,0.544,�k�k��,6.5,�L
2022/09/20,18:00,0.559,0.795,0.521,0.975,0.685,0.340,0.570,0.542,���k��,8.1,�L
2022/09/20,18:10,0.559,0.797,0.522,0.979,0.687,0.342,0.571,0.543,�k�k��,6.7,�L
2022/09/20,18:20,0.562,0.799,0.525,0.983,0.687,0.341,0.571,0.542,�k,7.8,�L
2022/09/20,18:30,0.564,0.802,0.522,0.983,0.691,0.342,0.573,0.544,�k,6.7,�L
2022/09/20,18:40,0.564,0.805,0.525,0.985,0.690,0.340,0.572,0.544,�k�k��,8.1,�L
2022/09/20,18:50,0.564,0.802,0.522,0.986,0.692,0.339,0.573,0.544,�k,8.4,�L
2022/09/20,19:00,0.565,0.804,0.521,0.987,0.688,0.339,0.572,0.542,�k,6.7,�L
2022/09/20,19:10,0.561,0.799,0.522,0.985,0.689,0.340,0.573,0.542,�k,7.2,�L
2022/09/20,19:20,0.561,0.800,0.522,0.986,0.689,0.340,0.571,0.544,�k,8.1,�L
2022/09/20,19:30,0.561,0.801,0.520,0.985,0.688,0.337,0.573,0.544,�k,7.4,��
2022/09/20,19:40,0.559,0.801,0.519,0.985,0.689,0.336,0.572,0.543,�k,7.4,�L
2022/09/20,19:50,0.558,0.802,0.517,0.986,0.688,0.335,0.572,0.543,�k,7.6,�L
2022/09/20,20:00,0.557,0.800,0.517,0.987,0.689,0.336,0.572,0.544,�k,6.3,��
2022/09/20,20:10,0.558,0.801,0.515,0.987,0.689,0.335,0.573,0.544,�k�k��,5.4,��
2022/09/20,20:20,0.558,0.802,0.513,0.989,0.690,0.335,0.572,0.542,�k�k��,5.6,��
2022/09/20,20:30,0.559,0.800,0.514,0.987,0.690,0.333,0.574,0.544,�k�k��,5.2,��
2022/09/20,20:40,0.557,0.801,0.512,0.988,0.691,0.331,0.572,0.544,�k�k��,4.7,��
2022/09/20,20:50,0.556,0.801,0.513,0.989,0.692,0.333,0.571,0.546,�k��,5.5,��
2022/09/20,21:00,0.554,0.803,0.512,0.986,0.695,0.332,0.570,0.543,�k��,4.6,��
2022/09/20,21:10,0.556,0.802,0.513,0.989,0.691,0.332,0.573,0.545,�k�k��,4.3,��
2022/09/20,21:20,0.555,0.801,0.512,0.990,0.692,0.332,0.573,0.546,�k�k��,4.2,��
2022/09/20,21:30,0.555,0.801,0.513,0.991,0.693,0.331,0.573,0.545,�k��,4.5,��
2022/09/20,21:40,0.556,0.802,0.511,0.989,0.694,0.332,0.572,0.545,�k�k��,4.3,��
2022/09/20,21:50,0.556,0.803,0.512,0.992,0.692,0.331,0.572,0.545,�k�k��,5.6,��
2022/09/20,22:00,0.556,0.800,0.511,0.993,0.695,0.332,0.571,0.544,�k�k��,6.4,��
2022/09/20,22:10,0.556,0.801,0.512,0.991,0.695,0.331,0.573,0.545,�k�k��,5.5,��
2022/09/20,22:20,0.554,0.803,0.513,0.993,0.693,0.330,0.573,0.545,�k�k��,5.4,��
2022/09/20,22:30,0.556,0.801,0.513,0.993,0.696,0.330,0.573,0.543,�k�k��,4.5,��
2022/09/20,22:40,0.555,0.804,0.512,0.992,0.696,0.332,0.574,0.544,�k�k��,5.2,��
2022/09/20,22:50,0.555,0.803,0.514,0.994,0.696,0.331,0.575,0.545,�k�k��,5.3,��
2022/09/20,23:00,0.555,0.802,0.514,0.991,0.695,0.332,0.574,0.546,�k�k��,4.8,��
2022/09/20,23:10,0.556,0.804,0.513,0.994,0.696,0.332,0.576,0.545,�k�k��,5.0,��
2022/09/20,23:20,0.555,0.805,0.513,0.992,0.696,0.331,0.575,0.545,�k�k��,4.7,��
2022/09/20,23:30,0.556,0.803,0.512,0.994,0.699,0.331,0.575,0.545,�k��,4.7,��
2022/09/20,23:40,0.556,0.804,0.513,0.995,0.696,0.332,0.576,0.545,�k��,5.1,��
2022/09/20,23:50,0.557,0.803,0.514,0.995,0.697,0.332,0.576,0.546,�k�k��,6.0,��
